FW3054 Weather Reports


time (UTC)temp
F
wind
direction
speed
knots
gust
knots
rain 1hr
in
rain 24hr
in
rain mn
in
humidity
%
barometer
mb
20260831191516 89 0.0 2.6 0.00 0.00 0.00 57 1023.1
20260831190516 89 23 0.9 4.3 0.00 0.00 0.00 57 1023.2
20260831185516 89 23 0.9 3.5 0.00 0.00 0.00 49 1023.2
20260831184516 89 23 1.7 4.3 0.00 0.00 0.00 51 1023.2
20260831182516 89 23 0.9 3.5 0.00 0.00 0.00 52 1023.5
20260831181515 89 0 0.9 2.6 0.00 0.00 0.00 54 1023.5
20260831180518 89 0 0.9 2.6 0.00 0.00 0.00 52 1023.6
20260831175516 88 0.0 0.9 0.00 0.00 0.00 55 1023.8
20260831174516 87 23 0.9 4.3 0.00 0.00 0.00 56 1023.6
20260831173516 86 23 0.9 1.7 0.00 0.00 0.00 57 1023.8
20260831172516 86 0.0 0.9 0.00 0.00 0.00 63 1023.9
20260831171515 85 0.0 1.7 0.00 0.00 0.00 63 1023.7
20260831170515 84 0 0.9 2.6 0.00 0.00 0.00 64 1023.9
20260831165535 85 0 0.9 2.6 0.00 0.00 0.00 66 1024.0
20260831164516 85 0 0.9 4.3 0.00 0.00 0.00 64 1024.3
20260831163515 84 23 0.9 1.7 0.00 0.00 0.00 66 1024.4
20260831162517 83 0 0.9 3.5 0.00 0.00 0.00 66 1024.4
20260831161515 83 23 0.9 2.6 0.00 0.00 0.00 67 1024.3
20260831160515 82 0.0 0.0 0.00 0.00 0.00 72 1024.4
20260831155515 81 0.0 1.7 0.00 0.00 0.00 72 1024.3
20260831154515 80 0.0 0.0 0.00 0.00 0.00 75 1024.4
20260831153515 79 0.0 1.7 0.00 0.00 0.00 77 1024.5
20260831152515 79 0.0 0.0 0.00 0.00 0.00 81 1024.7
20260831151515 77 0.0 0.9 0.00 0.00 0.00 82 1024.7
20260831150515 76 0.0 3.5 0.00 0.00 0.00 84 1024.6
20260831145515 75 0.0 0.0 0.00 0.00 0.00 86 1024.7
20260831144515 74 0.0 0.9 0.00 0.00 0.00 88 1024.6
20260831143515 73 0.0 0.9 0.00 0.00 0.00 90 1024.6
20260831142555 72 0.0 0.9 0.00 0.00 0.00 90 1024.5
20260831141515 71 0.0 0.0 0.00 0.00 0.00 89 1024.5
20260831140515 70 0.0 0.0 0.00 0.00 0.00 85 1024.3
20260831135515 69 0.0 0.0 0.00 0.00 0.00 80 1024.1
20260831134515 69 0.0 0.0 0.00 0.00 0.00 78 1024.1
20260831133515 68 0.0 0.0 0.00 0.00 0.00 78 1024.0
20260831132515 67 0.0 0.0 0.00 0.00 0.00 77 1024.2
20260831131515 67 0.0 0.0 0.00 0.00 0.00 77 1024.3
20260831130515 66 0.0 0.0 0.00 0.00 0.00 76 1024.2
20260831125515 66 0.0 0.0 0.00 0.00 0.00 76 1024.2
20260831124517 66 0.0 0.0 0.00 0.00 0.00 77 1024.0
20260831123517 65 0.0 0.0 0.00 0.00 0.00 77 1023.9
20260831122517 65 0.0 0.0 0.00 0.00 0.00 78 1024.0
20260831121517 65 0.0 0.0 0.00 0.00 0.00 79 1024.0
20260831120517 64 0.0 0.0 0.00 0.00 0.00 80 1023.8
20260831115517 64 0.0 0.0 0.00 0.00 0.00 81 1023.8
20260831114517 64 0.0 0.0 0.00 0.00 0.00 81 1023.7
20260831113517 64 0.0 0.0 0.00 0.00 0.00 82 1023.7
20260831112517 64 0.0 0.0 0.00 0.00 0.00 83 1023.8
20260831111517 64 0.0 0.0 0.00 0.00 0.00 83 1023.6
20260831110517 64 0.0 0.0 0.00 0.00 0.00 83 1023.7
20260831105517 64 0.0 0.0 0.00 0.00 0.00 83 1023.7
20260831104517 65 0.0 0.0 0.00 0.00 0.00 83 1023.6
20260831103517 65 0.0 0.0 0.00 0.00 0.00 84 1023.4
20260831102517 65 0.0 0.0 0.00 0.00 0.00 83 1023.4
20260831101557 65 0.0 0.0 0.00 0.00 0.00 83 1023.3
20260831100517 65 0.0 0.0 0.00 0.00 0.00 83 1023.4
20260831095517 65 0.0 0.0 0.00 0.00 0.00 83 1023.3
20260831094537 65 0.0 0.0 0.00 0.00 0.00 84 1023.2
20260831093517 65 0.0 0.0 0.00 0.00 0.00 84 1023.3
20260831092517 65 0.0 0.0 0.00 0.00 0.00 85 1023.6
20260831091537 65 0.0 0.0 0.00 0.00 0.00 85 1023.6
20260831090517 66 0.0 0.0 0.00 0.00 0.00 85 1023.4
20260831085517 66 0.0 0.0 0.00 0.00 0.00 85 1023.8
20260831084517 66 0.0 0.0 0.00 0.00 0.00 85 1023.7
20260831083517 66 0.0 0.0 0.00 0.00 0.00 85 1023.8
20260831082557 66 0.0 0.0 0.00 0.00 0.00 84 1023.4
20260831081517 66 0.0 0.0 0.00 0.00 0.00 85 1023.4
20260831080537 66 0.0 0.0 0.00 0.00 0.00 85 1023.5
20260831075517 66 0.0 0.0 0.00 0.00 0.00 85 1023.7
20260831074517 67 0.0 0.0 0.00 0.00 0.00 85 1023.9
20260831073517 67 0.0 0.0 0.00 0.00 0.00 86 1023.9
20260831072517 67 0.0 0.0 0.00 0.00 0.00 86 1023.9
20260831071517 67 0.0 0.0 0.00 0.00 0.00 86 1023.9
20260831070536 67 0.0 0.0 0.00 0.00 0.00 87 1023.8
20260831065516 67 0.0 0.0 0.00 0.00 0.00 87 1023.7
20260831064517 67 0.0 0.0 0.00 0.00 0.00 87 1023.7
20260831063517 67 0.0 0.0 0.00 0.00 0.00 87 1023.6
20260831062517 68 0.0 0.0 0.00 0.00 0.00 87 1023.8
20260831061517 68 0.0 0.0 0.00 0.00 0.00 88 1023.9
20260831060516 68 0.0 0.0 0.00 0.00 0.00 88 1024.0
20260831055517 68 0.0 0.0 0.00 0.00 0.00 88 1024.0
20260831054517 68 0.0 0.0 0.00 0.00 0.00 89 1023.8
20260831053516 68 0.0 0.0 0.00 0.00 0.00 89 1024.1
20260831052517 68 0.0 0.0 0.00 0.00 0.00 89 1023.8
20260831051516 69 0.0 0.0 0.00 0.00 0.00 89 1023.9
20260831050516 69 0.0 0.0 0.00 0.00 0.00 89 1023.8
20260831045516 69 0.0 0.0 0.00 0.00 0.00 89 1023.6
20260831044516 69 0.0 0.0 0.00 0.00 0.00 90 1023.6
20260831043516 69 0.0 0.0 0.00 0.00 0.00 90 1023.7
20260831042518 70 0.0 0.0 0.00 0.00 0.00 90 1023.5
20260831041536 70 0.0 0.0 0.00 0.00 0.00 90 1023.5
20260831040516 70 0.0 0.0 0.00 0.00 0.00 90 1023.5
20260831035516 70 0.0 0.0 0.00 0.00 0.00 89 1023.3
20260831034517 71 0.0 0.0 0.00 0.00 0.00 89 1023.5
20260831033517 71 0.0 0.0 0.00 0.00 0.00 89 1023.5
20260831032516 72 0.0 0.0 0.00 0.00 0.00 89 1023.5
20260831031516 72 0.0 0.0 0.00 0.00 0.00 88 1023.6
20260831030557 72 0.0 0.0 0.00 0.00 0.00 88 1023.6
20260831025516 72 0.0 0.0 0.00 0.00 0.00 88 1023.6
20260831024536 73 0.0 0.0 0.00 0.00 0.00 87 1023.7
20260831023517 73 0.0 0.0 0.00 0.00 0.00 87 1023.7
20260831022517 74 0.0 0.9 0.00 0.00 0.00 86 1023.6
20260831021517 74 0.0 0.9 0.00 0.00 0.00 85 1023.6
20260831020516 75 0.0 0.0 0.00 0.00 0.00 84 1023.5
20260831015517 75 0.0 0.0 0.00 0.00 0.00 83 1023.4
20260831014536 76 0.0 0.9 0.00 0.00 0.00 83 1023.4
20260831013516 76 0.0 0.0 0.00 0.00 0.00 82 1023.3
20260831012516 76 0.0 0.0 0.00 0.00 0.00 81 1023.0
20260831011516 76 0.0 0.0 0.00 0.00 0.00 82 1022.8
20260831010536 76 0.0 0.0 0.00 0.00 0.00 82 1022.6
20260831005516 76 0.0 0.9 0.00 0.00 0.00 83 1022.5
20260831004516 76 0.0 1.7 0.00 0.00 0.00 83 1022.4
20260831003536 76 0.0 1.7 0.00 0.00 0.00 82 1022.4
20260831002516 77 0.0 0.9 0.00 0.00 0.00 81 1022.4
20260831001516 77 0.0 0.9 0.00 0.00 0.00 80 1022.5
20260831000516 78 0.0 0.0 0.00 0.00 0.00 79 1022.4
20260830235516 78 0.0 0.0 0.00 0.00 0.00 78 1022.3
20260830234516 78 0.0 0.0 0.00 0.00 0.00 78 1022.2
20260830233516 78 0.0 0.9 0.00 0.00 0.00 78 1022.0
20260830232516 79 0.0 0.0 0.00 0.00 0.00 77 1022.1
20260830231516 79 0.0 0.9 0.00 0.00 0.00 76 1022.1
20260830230516 79 0.0 0.0 0.00 0.00 0.00 75 1022.0
20260830225516 80 0.0 0.9 0.00 0.00 0.00 75 1022.1
20260830224516 81 0.0 0.9 0.00 0.00 0.00 74 1022.3
20260830223516 81 0.0 0.9 0.00 0.00 0.00 70 1022.2
20260830222516 82 0.0 0.0 0.00 0.00 0.00 70 1022.2
20260830221516 82 0.0 0.0 0.00 0.00 0.00 68 1022.3
20260830220516 82 0.0 0.0 0.00 0.00 0.00 68 1022.1
20260830215516 83 0.0 0.0 0.00 0.00 0.00 68 1022.1
20260830214516 84 0.0 0.0 0.00 0.00 0.00 64 1022.2
20260830213536 84 0.0 0.0 0.00 0.00 0.00 59 1022.1
20260830212516 85 0.0 0.0 0.00 0.00 0.00 58 1022.2
20260830211516 85 0.0 0.0 0.00 0.00 0.00 58 1022.3
20260830210516 87 0.0 0.0 0.00 0.00 0.00 55 1022.3
20260830205516 88 0.0 0.9 0.00 0.00 0.00 53 1022.4
20260830204516 89 0.0 1.7 0.00 0.00 0.00 52 1022.6
20260830203516 90 0.0 0.0 0.00 0.00 0.00 55 1022.6
20260830202516 90 0.0 0.9 0.00 0.00 0.00 51 1022.7
20260830201556 90 0.0 0.9 0.00 0.00 0.00 51 1022.6
20260830200516 90 0.0 0.9 0.00 0.00 0.00 54 1022.8
20260830195516 89 0.0 0.9 0.00 0.00 0.00 53 1022.9
20260830194516 90 135 0.9 0.9 0.00 0.00 0.00 53 1023.0
20260830193516 90 0.0 0.9 0.00 0.00 0.00 53 1023.1
20260830192556 90 0.0 0.9 0.00 0.00 0.00 53 1023.4